Date String (YYYY-MM-DD hh:mm:ss) UTC,Instrument flags,Ambient pressure (hPa),Sample flow (lpm),Bypass flow (lpm),Sample temperature (°C),Ambient temperature (°C),ASC tube jacket temperature (°C),LED temperature (°C),Box temperature (°C),Sample RH (%),Span deviation,Mass concentration (μg/m³),Mass concentration (μg/m³),Mass concentration (μg/m³)
DateTimeUTC,F1_M11,P_M11,Q1_M11,Q2_M11,T1_M11,T2_M11,T3_M11,T4_M11,T5_M11,U1_M11,ZSPAN_M11,X0_M11,X2_M11,X1_M11
2021-11-01 21:00:00,,0831.7,5.02,0.00,23.6,22.8,00.0,32.6,25.4,18.5,0000.0,0008.38,0006.65,0006.54
2021-11-01 21:01:00,,0831.7,4.99,0.00,23.6,22.8,00.0,32.6,25.4,18.5,0000.0,0008.86,0006.67,0006.56
2021-11-01 21:02:00,,0831.7,4.99,0.00,23.6,22.8,00.0,32.6,25.4,18.6,0000.0,0008.92,0006.68,0006.57
2021-11-01 21:03:00,,0831.8,5.01,0.00,23.6,22.8,00.0,32.6,25.4,18.9,0000.0,0008.93,0006.70,0006.59
2021-11-01 21:04:00,,0831.8,5.00,0.00,23.6,22.8,00.0,32.6,25.4,18.8,0000.0,0008.89,0006.69,0006.60
2021-11-01 21:05:00,,0831.8,5.00,0.00,23.6,22.8,00.0,32.6,25.4,18.9,0000.0,0008.92,0006.70,0006.61
2021-11-01 21:06:00,,0831.8,5.00,0.00,23.6,22.8,00.0,32.6,25.4,19.0,0000.0,0008.90,0006.72,0006.63
2021-11-01 21:07:00,,0831.7,4.99,0.00,23.5,22.7,00.0,32.6,25.4,18.9,0000.0,0008.79,0006.73,0006.63
2021-11-01 21:08:00,,0831.7,5.01,0.00,23.5,22.7,00.0,32.6,25.3,18.9,0000.0,0009.30,0006.73,0006.63
2021-11-01 21:09:00,,0831.7,4.99,0.00,23.5,22.7,00.0,32.6,25.3,19.0,0000.0,0009.29,0006.72,0006.62
2021-11-01 21:10:00,,0831.7,5.01,0.00,23.5,22.7,00.0,32.6,25.3,19.1,0000.0,0009.24,0006.70,0006.61
2021-11-01 21:11:00,,0831.7,5.00,0.00,23.5,22.7,00.0,32.6,25.3,19.3,0000.0,0009.22,0006.70,0006.61
2021-11-01 21:12:00,,0831.8,4.99,0.00,23.5,22.7,00.0,32.6,25.3,19.3,0000.0,0008.81,0006.70,0006.60
2021-11-01 21:13:00,,0831.9,5.01,0.00,23.6,22.8,00.0,32.6,25.4,19.1,0000.0,0008.69,0006.70,0006.60
2021-11-01 21:14:00,,0832.0,5.01,0.00,23.6,22.8,00.0,32.6,25.4,18.9,0000.0,0008.68,0006.70,0006.60
2021-11-01 21:15:00,,0831.9,5.00,0.00,23.6,22.8,00.0,32.6,25.4,19.1,0000.0,0008.69,0006.70,0006.59
2021-11-01 21:16:00,,0831.9,4.99,0.00,23.6,22.8,00.0,32.6,25.4,19.1,0000.0,0008.70,0006.72,0006.61
2021-11-01 21:17:00,,0832.0,5.01,0.00,23.6,22.8,00.0,32.6,25.4,18.8,0000.0,0008.70,0006.73,0006.61
2021-11-01 21:18:00,,0831.9,5.00,0.00,23.6,22.8,00.0,32.6,25.4,18.6,0000.0,0008.69,0006.72,0006.61
2021-11-01 21:19:00,,0832.0,5.00,0.00,23.6,22.8,00.0,32.6,25.4,18.6,0000.0,0008.04,0006.71,0006.61
2021-11-01 21:20:00,,0832.0,5.00,0.00,23.6,22.8,00.0,32.6,25.4,18.5,0000.0,0007.93,0006.71,0006.61
2021-11-01 21:21:00,,0831.9,4.99,0.00,23.6,22.8,00.0,32.6,25.4,18.7,0000.0,0007.93,0006.71,0006.61
2021-11-01 21:22:00,,0832.1,5.01,0.00,23.6,22.8,00.0,32.6,25.4,18.9,0000.0,0007.95,0006.71,0006.61
2021-11-01 21:23:00,,0832.1,5.00,0.00,23.6,22.8,00.0,32.6,25.4,18.6,0000.0,0008.02,0006.73,0006.61
2021-11-01 21:24:00,,0832.1,4.99,0.00,23.6,22.8,00.0,32.6,25.4,18.6,0000.0,0008.02,0006.72,0006.61
2021-11-01 21:25:00,,0832.1,5.00,0.00,23.6,22.8,00.0,32.6,25.4,18.5,0000.0,0008.01,0006.70,0006.59
2021-11-01 21:26:00,,0832.1,4.99,0.00,23.6,22.8,00.0,32.6,25.4,18.4,0000.0,0008.66,0006.69,0006.57
2021-11-01 21:27:00,,0832.1,5.01,0.00,23.6,22.8,00.0,32.6,25.4,18.5,0000.0,0009.05,0006.67,0006.56
2021-11-01 21:28:00,,0832.1,4.99,0.00,23.6,22.8,00.0,32.6,25.4,18.6,0000.0,0009.17,0006.65,0006.53
2021-11-01 21:29:00,,0832.1,5.01,0.00,23.6,22.8,00.0,32.6,25.4,18.5,0000.0,0009.14,0006.62,0006.50
2021-11-01 21:30:00,,0832.1,4.99,0.00,23.6,22.8,00.0,32.6,25.4,18.6,0000.0,0009.13,0006.59,0006.47
2021-11-01 21:31:00,,0832.1,5.00,0.00,23.6,22.8,00.0,32.6,25.4,18.5,0000.0,0009.10,0006.58,0006.44
2021-11-01 21:32:00,,0832.1,5.00,0.00,23.6,22.8,00.0,32.6,25.4,18.5,0000.0,0009.05,0006.55,0006.42
2021-11-01 21:33:00,,0832.1,4.99,0.00,23.6,22.8,00.0,32.6,25.4,18.4,0000.0,0009.02,0006.52,0006.39
2021-11-01 21:34:00,,0832.1,5.02,0.00,23.6,22.8,00.0,32.6,25.5,18.4,0000.0,0008.94,0006.48,0006.36
2021-11-01 21:35:00,,0832.2,5.00,0.00,23.6,22.8,00.0,32.6,25.4,18.7,0000.0,0008.86,0006.42,0006.32
2021-11-01 21:36:00,,0832.2,5.00,0.00,23.6,22.8,00.0,32.6,25.5,18.8,0000.0,0008.83,0006.40,0006.30
2021-11-01 21:37:00,,0832.2,5.00,0.00,23.6,22.8,00.0,32.6,25.5,18.7,0000.0,0008.26,0006.39,0006.29
2021-11-01 21:38:00,,0832.2,5.00,0.00,23.6,22.8,00.0,32.6,25.5,18.5,0000.0,0008.03,0006.40,0006.29
2021-11-01 21:39:00,,0832.1,4.98,0.00,23.6,22.8,00.0,32.6,25.5,18.4,0000.0,0007.90,0006.42,0006.31
2021-11-01 21:40:00,,0832.1,5.01,0.00,23.6,22.8,00.0,32.6,25.5,18.5,0000.0,0007.90,0006.42,0006.32
2021-11-01 21:41:00,,0832.1,5.00,0.00,23.6,22.8,00.0,32.6,25.5,18.7,0000.0,0007.92,0006.41,0006.32
2021-11-01 21:42:00,,0832.0,4.99,0.00,23.6,22.8,00.0,32.6,25.5,18.6,0000.0,0008.20,0006.42,0006.32
2021-11-01 21:43:00,,0832.1,5.00,0.00,23.6,22.8,00.0,32.6,25.5,18.5,0000.0,0008.25,0006.45,0006.34
2021-11-01 21:44:00,,0832.1,5.01,0.00,23.6,22.8,00.0,32.6,25.5,18.5,0000.0,0008.27,0006.46,0006.36
2021-11-01 21:45:00,,0832.1,5.00,0.00,23.6,22.8,00.0,32.6,25.5,18.6,0000.0,0008.43,0006.49,0006.37
2021-11-01 21:46:00,,0832.2,5.00,0.00,23.6,22.8,00.0,32.6,25.5,18.7,0000.0,0008.73,0006.49,0006.37
2021-11-01 21:47:00,,0832.2,5.01,0.00,23.7,22.8,00.0,32.6,25.5,18.5,0000.0,0008.74,0006.50,0006.36
2021-11-01 21:48:00,,0832.2,4.99,0.00,23.7,22.8,00.0,32.6,25.5,18.5,0000.0,0008.69,0006.50,0006.36
2021-11-01 21:49:00,,0832.2,5.00,0.00,23.7,22.9,00.0,32.6,25.5,18.5,0000.0,0008.41,0006.46,0006.35
2021-11-01 21:50:00,,0832.3,5.01,0.00,23.7,22.9,00.0,32.6,25.5,18.4,0000.0,0008.37,0006.43,0006.32
2021-11-01 21:51:00,,0832.4,4.99,0.00,23.7,22.9,00.0,32.7,25.5,18.4,0000.0,0008.37,0006.42,0006.31
2021-11-01 21:52:00,,0832.3,5.00,0.00,23.7,22.9,00.0,32.7,25.5,18.4,0000.0,0008.44,0006.42,0006.31
2021-11-01 21:53:00,,0832.3,5.01,0.00,23.7,22.9,00.0,32.7,25.5,18.4,0000.0,0008.14,0006.40,0006.31
2021-11-01 21:54:00,,0832.3,4.99,0.00,23.7,22.9,00.0,32.7,25.5,18.4,0000.0,0008.14,0006.40,0006.29
2021-11-01 21:55:00,,0832.3,5.00,0.00,23.7,22.9,00.0,32.7,25.5,18.3,0000.0,0008.16,0006.39,0006.29
2021-11-01 21:56:00,,0832.3,5.00,0.00,23.7,22.9,00.0,32.7,25.5,18.4,0000.0,0008.09,0006.37,0006.28
2021-11-01 21:57:00,,0832.3,5.01,0.00,23.7,22.9,00.0,32.7,25.5,18.4,0000.0,0007.77,0006.41,0006.32
2021-11-01 21:58:00,,0832.2,5.00,0.00,23.7,22.9,00.0,32.7,25.5,18.5,0000.0,0007.79,0006.44,0006.35
2021-11-01 21:59:00,,0832.3,4.99,0.00,23.7,22.9,00.0,32.7,25.5,18.6,0000.0,0007.80,0006.46,0006.38
